Regional Weather Roundup
Issued by NWS Sterling, VA

Home | Current Version | Previous Version | Text Only | Print | Product List | Glossary Off
Versions: 1 2 3 4 5 6 7 8 9 10 11 12 13 14 15 16 17 18 19 20 21 22 23 24 25 26 27 28 29 30 31 32 33 34 35 36 37 38 39 40 41 42 43 44 45 46 47 48 49 50

000
ASUS41 KLWX 010310
RWRLWX

REGIONAL WEATHER ROUNDUP
NATIONAL WEATHER SERVICE BALTIMORE MD/WASHINGTON DC
1000 PM EST SAT JAN 31 2015

Note: "FAIR" indicates few or no clouds below 12,000 feet
with no significant weather and/or obstructions to visibility.
 TC=TEMPERATURE CELSIUS

 * =Non NWS site. Station does not report precipitation (e.g. rain,
    snow, etc.), thunder, or fog.

DCZ001-MDZ009-015-VAZ040>042-051-053>054-010400-
WASHINGTON METRO

CITY           SKY/WX    TMP DP  RH WIND       PRES   REMARKS
WASHINGTON NAT CLEAR     30  13  49 CALM      30.29S
DULLES         PTCLDY    19  12  74 CALM      30.26F
ANDREWS AFB    CLEAR     21  14  74 CALM      30.26S
FT BELVOIR     CLEAR     22  14  70 CALM      30.29S
QUANTICO       CLEAR     24  14  65 NW3       30.30S
COLLEGE PARK*  CLEAR     23  14  68 CALM      30.27F
LEESBURG*      CLEAR     23  16  74 CALM      30.27S
MANASSAS*      CLEAR     19  18  93 CALM      30.28S
GAITHERSBURG*  CLEAR     19   9  63 CALM      30.28S

$$

MDZ006>007-011-014-010400-
BALTIMORE METRO

CITY           SKY/WX    TMP DP  RH WIND       PRES   REMARKS
BWI AIRPORT    CLEAR     22  10  60 CALM      30.26F
MD SCIENCE CTR   N/A     27   9  46 MISG      30.27S
MARTIN STATE   CLEAR     25  16  68 CALM      30.29S
ANNAPOLIS      CLEAR     25  15  66 CALM      30.28S
FORT MEADE*    CLEAR     19  12  73 CALM      30.29F

$$

MDZ012-015-019>023-010400-
MARYLAND EASTERN SHORE

CITY           SKY/WX    TMP DP  RH WIND       PRES   REMARKS
OCEAN CITY     CLEAR     25  10  53 W3        30.29F
SALISBURY      CLEAR     21  11  65 CALM      30.29S
BAY BRIDGE AP*   N/A     28  14  54 CALM      30.28F
CAMBRIDGE*     CLEAR     23  14  68 CALM      30.28S
EASTON*        CLEAR     25  16  66 CALM      30.31F

$$

MDZ017>025-010400-
SOUTHERN MARYLAND

CITY           SKY/WX    TMP DP  RH WIND       PRES   REMARKS
PATUXENT RIVER CLEAR     22  10  60 CALM      30.28F
ST INIGOES     NOT AVBL
LEONARDTOWN*   CLEAR     23  10  58 CALM      30.29F

$$

MDZ003>005-010400-
NORTH CENTRAL MARYLAND

CITY           SKY/WX    TMP DP  RH WIND       PRES   REMARKS
FREDERICK*     NOT AVBL
HAGERSTOWN APT CLEAR     23   7  50 CALM      30.23F
WESTMINSTER*   PTCLDY    21   9  58 CALM      30.21

$$

MDZ501>502-010400-
WESTERN MARYLAND

CITY           SKY/WX    TMP DP  RH WIND       PRES   REMARKS
OAKLAND*       PTCLDY    21  10  63 W14G23    30.12S WCI   8
CUMBERLAND*    PTCLDY    28  12  50 CALM      30.27F

$$

VAZ025>031-010400-
SHENANDOAH VALLEY

CITY           SKY/WX    TMP DP  RH WIND       PRES   REMARKS
WINCHESTER*    CLEAR     25   9  50 CALM      30.23F
FRONT ROYAL*   FAIR      27  10  50 CALM      30.23S
LURAY*         FAIR      27  18  69 CALM      30.23S
NEW MARKET*    FAIR      23  15  74 W5        30.22F
STAUNTON*      PTCLDY    24  15  66 CALM      30.24S
WAYNESBORO*    FAIR      32   3  29 SW8       30.21S WCI  25

$$

WVZ021-048>050-054>055-010400-
EASTERN WEST VIRGINIA PANHANDLE

CITY           SKY/WX    TMP DP  RH WIND       PRES   REMARKS
MARTINSBURG    CLEAR     21   9  59 CALM      30.24F
PETERSBURG*    FAIR      31   5  32 CALM      30.24S

$$

VAZ036>039-050-010400-
CENTRAL FOOTHILLS

CITY           SKY/WX    TMP DP  RH WIND       PRES   REMARKS
CHARLOTTESVILL PTCLDY    31   5  33 CALM      30.24S
CULPEPER*      CLEAR     19  16  86 CALM      30.26S
ORANGE*        CLEAR     25  18  74 CALM      30.27S
GORDONSVILLE*  FAIR      23  14  70 CALM      30.25S
WARRENTON*     FAIR      19  18  95 CALM      30.26S

$$

VAZ055>057-010400-
NORTH AND CENTRAL PIEDMONT

CITY           SKY/WX    TMP DP  RH WIND       PRES   REMARKS
FREDERICKSBRG* CLEAR     24  13  62 CALM      30.27S
STAFFORD*      CLEAR     21  11  65 CALM      30.32S

$$

NCZ024-NYZ072-PAZ021-071-VAZ022-071-010400-
OTHER REGIONAL OBSERVATIONS

CITY           SKY/WX    TMP DP  RH WIND       PRES   REMARKS
NEW YORK CITY  CLEAR     21   4  47 VRB6      30.23R
PHILADELPHIA   CLEAR     23   8  52 W8        30.26S WCI  14
PITTSBURGH     CLOUDY    27  16  63 SW7       30.21F
ROANOKE        MOCLDY    35   7  31 W6        30.27F
RICHMOND       PTCLDY    28  15  58 CALM      30.26F
RALEIGH        MOCLDY    34  15  46 CALM      30.29F

$$

ANZ530>537-010400-
MARINE OBSERVATIONS

STATION/POSITION TIME  TEMP    WIND        PRES
                       AIR SEA DIR/SP/G
                 (UTC) (F)     (DEG/KT/KT) (MB)
THOMAS PT LIGHT  0300   30 34  220/  4/  4 1026.4S
BALT KEY BRIDGE  0300   28     240/  4/  4 1025.2F
COVE POINT       0300   29      CALM  /  1 1025.2F
LEWISETTA        0300   27 34     CALM     1025.3S
SOLOMONS ISLAND  0300      36                N/A
PINEY POINT      0300          100/  2/  2   N/A

$$



USA.gov is the U.S. government's official web portal to all federal, state and local government web resources and services.